GFSNE_sfc_30mbdewp_021.txt.gz
Dewpoint
31 28 27 25 24 24 21 20 19 21 20 18 18 18 17 18 19 20 20 22 26 26 25 30 35 37 37 37 37 38 40 42 43 44 45 49 51 52
32 26 23 24 26 23 20 19 18 20 20 17 16 16 18 17 18 20 21 24 24 26 26 27 35 34 35 36 37 37 38 41 43 43 42 44 47 51
30 24 25 25 24 22 21 19 18 17 17 18 16 17 18 19 18 20 20 21 21 23 26 29 32 33 34 35 36 37 38 39 42 44 42 42 43 48
24 25 24 22 22 21 18 17 17 16 16 15 16 18 18 18 18 18 19 17 19 19 27 31 31 32 31 33 34 36 37 39 41 42 42 42 42 44
26 23 23 23 22 17 17 17 16 14 16 19 19 19 18 17 17 17 16 19 18 22 34 35 33 31 31 32 32 35 37 37 40 40 40 37 41 43
26 25 23 20 17 18 16 16 15 16 16 17 16 15 15 16 19 19 18 18 17 18 24 36 32 29 31 30 28 34 36 36 37 40 39 39 41 42
23 21 17 17 17 17 16 16 16 15 15 15 15 18 17 19 20 18 19 18 19 21 26 31 33 26 23 26 27 34 34 35 36 39 37 38 42 44
20 16 15 15 15 16 18 19 19 16 18 21 19 13 12 16 18 22 22 17 13 20 26 25 28 25 22 19 24 30 34 35 36 38 36 36 38 40
17 15 15 13 15 16 17 17 18 20 21 20 19 17 19 19 19 21 21 21 18 17 20 23 23 20 21 19 24 25 31 34 36 37 37 37 38 36
17 17 16 15 17 19 17 15 14 12 11 11 13 15 17 15 14 15 16 16 17 16 16 16 16 17 20 21 24 22 28 34 35 37 39 37 37 36
19 17 16 13 18 18 16 15 13 11 11 13 13 16 18 19 19 20 18 15 18 15 17 22 18 18 21 22 25 25 27 34 33 37 38 37 36 36
19 17 15 16 17 16 16 15 14 13 10 11 14 17 17 18 19 20 18 19 18 17 20 25 19 14 16 20 23 27 28 34 33 33 35 34 33 33
19 17 17 18 16 15 15 14 16 14 13 17 19 18 18 19 21 21 22 23 23 18 17 21 19 19 17 20 27 24 27 32 34 33 34 32 31 34
20 19 20 19 15 15 14 13 13 15 17 16 18 18 19 20 21 23 23 21 23 23 18 25 23 18 27 23 21 23 24 28 33 34 34 35 33 30
21 20 20 19 15 15 12 12 15 13 12 15 18 18 19 21 22 26 27 31 23 23 22 20 22 23 20 19 19 23 23 24 29 30 36 35 32 31
24 22 20 20 18 18 18 14 14 13 11 11 17 19 21 20 21 23 26 28 29 23 23 21 20 20 19 19 20 19 22 22 26 26 29 31 31 31
21 20 19 19 17 16 15 14 15 14 11 10 14 18 19 18 19 22 24 26 27 28 28 23 22 22 23 21 25 21 22 23 26 30 28 26 27 28
20 18 18 22 19 17 15 14 14 14 14 11 12 13 15 18 18 20 21 22 23 23 25 29 27 24 24 26 28 26 24 23 23 25 26 26 25 28
20 19 20 21 21 17 14 13 12 13 14 14 12 13 13 13 17 19 19 20 19 20 21 24 25 28 25 21 25 29 27 29 26 25 25 26 25 28
21 19 19 20 19 17 15 14 15 15 15 13 14 15 14 13 14 13 16 18 17 18 18 21 24 20 22 23 26 27 27 29 29 26 27 28 29 27
22 23 24 20 19 18 18 19 19 18 16 15 15 15 17 14 12 11 13 14 14 15 14 15 19 21 22 25 26 26 27 25 26 28 30 27 26 25
24 23 22 20 20 20 21 21 19 19 18 16 14 14 15 15 14 11 12 12 11 11 10 15 21 22 23 23 26 24 25 26 24 24 24 24 26 24
26 25 25 26 26 23 21 20 19 18 17 17 15 15 13 14 15 13 11 11 10 9 9 13 18 24 24 21 22 26 23 24 24 23 25 24 24 24

GFSNE_sfc_30mbdewp_024.txt.gz
Dewpoint
35 34 33 32 30 29 29 26 23 21 20 21 22 22 22 20 20 22 23 23 26 26 26 28 28 26 26 29 33 36 36 37 37 41 40 42 44 47
35 35 35 33 29 30 28 26 24 22 20 20 20 21 21 20 21 22 22 21 22 24 25 26 28 28 28 32 34 35 36 37 38 39 41 39 41 44
34 34 35 31 28 27 26 24 22 21 19 18 18 20 20 21 21 21 21 20 20 22 24 25 28 30 33 33 33 33 34 36 37 39 41 43 41 43
28 29 28 26 26 26 24 21 21 19 17 16 19 20 20 21 21 21 20 20 20 20 24 26 32 33 36 35 34 33 34 37 36 38 40 41 41 40
29 28 27 26 24 22 21 18 18 18 19 18 17 18 19 19 19 20 21 23 23 21 19 23 32 34 36 35 34 33 33 36 36 36 39 39 38 39
28 27 25 23 19 18 16 16 16 18 17 17 17 17 17 18 20 20 20 20 21 21 22 27 29 34 35 34 34 33 35 35 35 35 38 39 38 39
26 24 21 16 17 17 15 17 19 19 18 16 17 18 18 16 15 20 23 23 23 22 25 29 28 32 34 33 31 31 33 34 35 36 38 38 38 40
22 20 18 17 20 19 20 20 20 18 17 19 20 19 18 19 22 20 20 19 19 23 22 22 26 27 31 32 30 30 31 32 33 36 37 37 37 38
21 19 18 16 21 20 19 18 18 18 19 19 18 19 23 20 17 16 15 16 17 18 19 17 19 20 22 20 26 26 29 30 33 35 37 38 37 36
21 20 19 18 20 19 18 17 17 16 15 15 14 14 16 17 18 19 19 19 19 19 18 16 19 23 22 22 25 26 27 31 33 35 37 38 37 37
22 21 20 17 20 18 17 17 16 14 15 13 12 15 18 21 21 21 21 20 19 19 19 19 22 24 24 22 23 23 28 32 33 35 38 38 37 36
22 20 18 17 17 18 17 17 16 17 15 13 16 20 19 20 21 27 26 22 22 21 20 22 24 26 19 22 25 27 27 32 33 33 35 37 34 34
22 21 22 20 20 18 16 17 17 16 15 18 19 19 22 21 21 22 24 27 25 24 23 21 22 22 24 24 29 31 30 32 33 33 32 34 36 36
22 23 23 21 20 19 17 17 15 17 17 17 17 19 19 20 21 22 24 28 31 27 25 25 22 23 23 24 27 30 29 32 33 33 32 33 34 32
23 24 22 22 22 20 18 16 16 16 17 13 14 17 19 21 22 23 23 25 26 30 25 24 23 22 23 22 20 22 27 28 33 34 33 32 33 33
23 24 24 21 20 20 19 21 19 18 15 14 13 16 20 21 20 22 22 24 25 28 28 25 23 22 22 21 21 20 21 23 31 29 34 34 34 34
25 22 21 21 21 19 19 18 17 18 17 14 13 15 16 17 18 20 22 22 22 23 27 28 24 23 24 23 21 23 24 23 29 31 29 30 30 30
21 21 20 21 22 21 19 18 16 16 16 15 17 14 16 16 16 18 21 21 20 20 22 24 28 24 23 24 26 24 27 27 23 26 26 26 25 30
22 21 20 21 22 21 19 18 15 16 15 17 15 16 17 17 16 17 17 19 19 18 21 22 25 23 22 22 28 28 27 28 29 24 25 24 26 29
24 23 22 22 21 21 18 18 18 18 18 18 15 17 17 17 16 15 15 17 16 17 18 18 21 19 19 21 24 26 27 26 29 25 25 27 27 28
25 24 23 22 23 21 20 20 20 19 18 16 17 18 17 18 17 16 14 15 15 14 13 14 19 22 23 24 25 25 25 26 27 27 30 28 27 26
24 24 23 23 23 22 22 22 22 20 21 20 18 16 17 15 15 17 14 13 14 13 12 14 19 24 26 26 24 25 25 25 25 24 23 24 25 24
26 25 25 24 25 25 23 22 22 21 19 18 17 16 16 13 16 17 17 13 13 12 10 12 17 19 24 20 23 25 24 25 24 24 23 25 25 26

GFSNE_sfc_30mbdewp_027.txt.gz
Dewpoint
37 36 34 34 35 35 32 29 26 22 21 21 21 23 24 21 22 23 23 23 25 26 25 24 23 23 24 25 26 27 28 32 34 35 37 38 39 41
35 35 36 35 35 35 31 27 25 24 21 21 20 20 21 21 21 22 22 22 23 25 25 27 26 24 26 26 28 27 30 32 32 34 36 38 39 40
32 34 34 34 33 32 27 24 21 19 17 18 19 21 20 20 21 22 22 21 21 23 25 26 26 27 30 31 33 33 31 31 32 33 35 37 38 40
29 28 28 27 26 26 22 19 17 18 18 17 18 18 19 20 20 20 19 21 22 23 24 25 24 26 31 33 34 35 35 34 33 35 35 36 38 40
29 28 27 25 24 20 18 16 17 17 18 18 17 18 19 19 19 20 21 22 23 21 21 23 26 28 31 32 33 35 35 35 35 36 36 36 38 39
28 27 25 21 17 16 15 15 17 18 18 18 17 17 18 19 20 19 21 24 23 22 23 24 27 26 27 32 33 34 34 33 35 35 35 36 38 38
25 24 20 18 19 17 15 16 18 18 18 18 17 18 19 19 19 24 21 19 18 19 20 24 22 25 27 32 33 34 35 33 33 33 34 37 38 37
22 20 19 19 21 22 22 21 21 20 19 19 19 18 18 20 24 20 18 16 14 17 20 18 20 21 21 27 30 33 33 34 32 33 34 37 38 37
22 20 19 22 20 19 19 18 17 17 18 18 16 14 14 15 17 17 17 18 18 19 19 18 19 18 21 21 24 27 28 30 32 33 35 37 37 36
22 21 20 20 20 18 17 16 16 17 16 16 16 14 15 17 19 20 20 20 20 21 21 18 19 20 23 25 26 27 27 29 32 33 36 37 37 35
23 22 22 19 20 19 17 16 16 17 16 16 15 18 20 22 21 23 23 23 20 19 20 20 20 22 23 24 26 25 26 30 31 32 34 38 36 35
23 21 19 18 18 19 19 16 15 15 17 16 17 18 20 21 23 22 22 22 22 21 20 21 21 23 21 23 25 28 29 31 31 32 34 36 37 35
22 21 20 20 21 21 20 17 16 18 18 17 17 18 19 21 21 22 23 23 23 23 26 27 22 22 22 23 25 30 30 30 31 33 32 34 34 34
21 22 23 24 22 22 22 21 20 20 17 15 16 14 17 18 20 22 23 24 24 25 29 28 24 22 21 21 23 27 28 30 31 32 32 32 33 35
21 22 24 23 23 24 24 23 21 18 15 16 13 13 15 18 21 21 22 22 25 25 25 30 26 24 23 21 21 22 22 25 32 31 32 31 32 32
22 23 24 24 23 21 21 21 20 19 18 16 12 13 16 17 18 20 19 22 22 21 24 30 28 26 21 21 22 21 22 22 30 31 32 32 32 32
22 22 23 21 19 21 20 19 19 18 17 14 13 15 15 16 16 18 19 21 20 20 21 23 28 28 24 23 22 21 23 25 27 27 30 31 31 32
25 23 21 18 19 20 21 19 18 17 16 14 15 15 16 16 17 17 18 19 19 19 19 24 23 25 24 23 24 21 24 26 26 26 29 28 29 31
21 20 19 19 18 20 21 20 17 15 15 17 15 13 16 17 16 16 16 16 17 17 19 20 21 19 18 18 26 28 23 26 27 26 24 24 27 29
22 21 20 20 20 21 21 20 18 17 17 16 16 13 16 16 16 16 16 15 15 16 14 15 17 19 20 20 21 25 27 25 27 25 24 26 27 29
23 23 23 22 22 22 22 20 17 17 17 16 15 15 18 16 14 15 17 14 13 14 13 12 14 19 25 25 23 23 24 27 26 27 27 25 25 25
24 23 24 24 24 24 24 23 19 18 18 17 17 18 14 14 12 12 16 16 13 14 11 11 16 22 25 25 23 23 23 23 25 25 27 27 25 23
26 25 25 24 24 23 23 22 21 20 19 19 18 15 14 14 12 14 17 18 12 12 11 11 14 18 21 20 24 24 24 23 22 21 22 25 27 27

GFSNE_sfc_30mbdewp_030.txt.gz
Dewpoint
35 35 35 35 35 36 36 36 31 26 23 22 21 22 22 22 22 23 22 23 22 23 23 24 23 24 24 24 24 26 27 27 28 28 33 34 34 35
34 34 35 36 36 35 34 30 28 26 24 21 19 20 21 19 20 21 22 21 22 23 24 23 24 25 25 24 26 27 29 30 29 28 30 30 32 34
31 32 35 34 34 33 30 25 20 19 17 18 19 20 19 19 20 21 21 21 21 23 21 23 24 24 26 25 26 30 31 32 33 31 32 32 32 33
29 29 29 32 28 26 22 19 17 17 17 15 17 17 18 19 19 20 20 20 22 22 21 21 21 24 27 28 31 31 31 31 33 34 32 32 32 32
29 28 27 26 24 22 19 17 17 17 18 18 17 18 18 18 19 20 21 21 23 20 18 17 18 25 25 25 25 31 31 34 34 35 34 34 34 32
29 27 25 23 18 17 16 15 16 17 18 18 18 18 17 18 20 20 20 22 20 18 17 18 19 23 19 23 24 30 32 34 34 34 35 35 33 34
24 21 20 20 21 18 16 17 18 18 18 17 18 18 18 18 19 20 22 18 16 17 17 20 19 20 22 23 23 29 28 34 34 33 32 32 33 35
22 20 19 21 21 23 23 22 20 17 16 18 18 16 16 14 15 16 17 16 16 18 19 19 20 20 21 22 23 25 25 27 33 33 32 32 34 36
23 20 19 22 21 19 19 18 17 16 15 18 16 16 14 14 15 17 19 19 19 20 20 20 20 20 20 20 23 24 26 29 29 33 33 33 34 36
23 21 20 20 20 19 18 17 17 16 16 16 17 16 16 19 21 22 23 24 23 22 22 19 19 19 21 22 25 27 29 30 31 32 32 32 33 36
24 23 22 20 21 21 18 18 17 15 15 17 17 18 19 20 22 23 21 21 18 19 21 22 20 20 22 22 24 28 29 31 31 32 30 32 33 36
23 22 20 19 21 20 20 19 16 14 15 17 17 17 18 19 21 21 22 20 20 18 20 23 23 22 20 22 22 26 28 29 31 31 31 32 34 35
23 22 21 22 21 22 22 20 17 17 19 20 18 17 17 18 19 20 22 22 21 20 21 25 25 23 23 22 22 26 29 30 29 30 31 33 34 35
22 23 23 23 23 24 23 23 23 23 21 19 16 16 14 15 17 19 21 22 23 23 24 27 26 23 22 22 21 24 26 28 31 30 32 32 32 32
23 22 22 24 25 24 24 23 23 22 19 17 15 15 13 15 18 18 19 21 22 24 23 28 28 26 25 23 22 20 22 22 29 31 31 31 31 31
23 24 23 23 24 23 22 21 21 20 19 16 16 13 15 16 16 17 18 20 21 19 21 23 25 28 24 24 22 22 22 22 25 30 31 31 31 32
25 23 22 21 21 23 21 21 20 19 18 17 14 14 15 17 16 18 18 18 18 18 19 21 23 27 27 24 21 21 21 23 26 27 30 30 30 31
24 23 23 21 21 21 19 19 20 19 18 16 13 15 14 16 16 17 17 16 16 17 18 20 21 20 20 23 27 23 22 24 26 27 29 28 28 30
26 24 24 21 21 20 19 19 19 20 17 15 16 14 13 16 16 16 16 16 15 15 17 17 17 18 17 16 22 28 24 25 25 25 24 27 27 28
25 23 21 20 19 19 19 19 19 19 15 16 15 14 12 15 16 14 15 15 14 15 14 13 14 16 18 18 20 24 28 25 25 25 24 26 27 28
26 24 22 21 21 21 21 20 19 18 16 15 14 14 14 17 15 12 13 16 14 14 12 10 13 18 23 24 21 22 23 27 28 26 25 24 25 25
26 25 25 23 22 22 22 22 20 19 17 15 15 14 15 15 14 11 12 16 16 13 12 12 15 20 24 24 22 21 21 21 23 26 28 27 24 22
28 26 26 25 24 24 24 23 22 22 20 18 17 16 15 14 13 11 14 17 14 11 11 11 13 16 19 22 22 23 22 21 21 21 22 26 27 28

GFSNE_sfc_30mbdewp_033.txt.gz
Dewpoint
35 35 35 35 35 35 36 35 33 27 25 23 21 22 21 21 19 20 21 22 22 21 21 22 24 23 24 25 25 26 26 27 26 27 28 28 32 34
33 33 33 35 36 36 35 33 33 30 25 24 20 20 20 19 18 20 21 22 22 22 23 22 22 24 25 24 25 26 25 26 27 27 29 32 32 32
32 31 32 34 34 34 33 29 25 25 23 19 19 19 18 18 18 20 21 21 22 22 22 22 22 22 21 24 26 27 26 28 29 29 30 32 32 33
29 29 30 33 33 29 26 22 20 18 17 14 17 17 17 18 18 19 20 21 21 22 21 19 18 18 18 20 28 26 27 28 29 30 30 32 32 32
29 29 28 27 26 25 22 19 17 17 18 17 17 18 18 18 18 20 21 21 22 19 17 16 18 19 20 21 24 23 24 27 28 32 33 34 34 32
30 29 28 26 24 20 19 17 16 16 17 18 18 17 18 18 19 19 17 18 17 17 17 19 19 20 21 22 21 22 23 26 29 32 34 34 35 35
27 25 23 20 20 18 16 15 17 18 18 17 16 17 17 16 16 15 15 16 18 18 18 19 20 21 22 23 23 23 23 25 27 27 32 34 33 33
23 22 19 21 23 22 22 23 20 18 15 16 15 16 15 16 15 15 17 18 16 19 19 21 21 21 22 22 23 24 24 24 25 26 28 32 33 33
23 22 20 20 22 24 24 21 19 19 18 16 15 15 16 15 16 18 19 20 20 21 22 20 20 20 20 21 22 24 27 29 28 29 31 31 32 33
23 22 21 20 22 20 18 17 17 18 16 15 16 17 17 19 19 21 23 23 22 21 20 19 19 20 21 22 23 26 28 29 29 31 32 32 33 32
24 23 22 21 22 23 20 18 18 18 15 17 18 19 19 19 18 19 19 19 17 17 19 20 21 21 22 23 24 24 28 28 28 31 32 33 31 30
23 24 25 22 21 24 21 19 19 18 15 15 17 18 18 18 17 19 20 19 17 16 20 20 20 23 21 21 22 22 26 27 28 30 31 31 30 30
23 23 23 23 23 23 22 22 21 19 17 19 20 19 18 17 16 18 19 20 19 18 19 22 23 22 24 22 22 22 26 26 28 31 30 31 31 32
23 24 24 24 24 23 24 24 24 23 22 21 20 18 16 16 15 18 19 20 22 21 22 23 23 24 23 21 20 23 23 24 27 29 31 32 33 33
28 25 24 25 25 25 26 26 25 23 21 19 18 17 16 14 17 18 18 19 20 22 22 22 24 24 25 23 22 22 21 22 25 26 28 31 31 31
29 27 25 26 25 25 24 24 23 21 20 18 17 16 14 16 16 17 17 17 18 18 19 21 22 24 24 24 24 22 22 21 23 26 29 31 31 31
30 26 24 24 23 22 22 22 22 20 20 18 16 15 14 15 15 17 17 17 15 16 17 19 20 20 22 25 22 22 22 22 23 26 29 29 30 31
26 24 23 23 22 22 21 21 20 19 19 19 16 14 14 14 14 16 16 16 15 15 16 17 17 17 18 19 27 24 23 24 26 26 27 27 27 29
27 24 24 24 22 22 21 21 20 19 18 19 17 14 14 13 14 16 15 15 15 14 15 16 15 16 15 15 18 28 24 24 24 24 24 26 26 26
29 27 25 25 24 21 21 20 20 19 18 18 15 14 13 13 14 15 14 13 15 14 14 13 12 15 16 16 18 22 27 25 24 24 24 26 27 27
26 27 25 25 23 22 22 21 20 18 17 16 15 14 13 13 14 14 12 13 14 15 12 11 12 17 22 22 19 20 23 25 28 26 24 24 24 24
27 27 26 25 24 23 22 21 20 18 17 16 15 15 14 13 16 14 11 14 15 15 12 12 14 18 22 22 21 19 21 21 23 26 27 26 23 22
28 27 27 27 26 24 23 22 21 20 19 18 17 16 14 14 15 13 11 15 16 12 11 11 13 14 16 21 21 21 21 21 22 20 21 26 28 28